• In Uzbekistan
  • List of Countries
  • For 7 days
  • Water Temperature
  • Satellite Maps
  • Weather Map
  • Weather Widgets
  • user-avatar
    Login

    Hourly Weather Abenra

    Today, 18 October, Thursday

    Time Temperature Precipitation Wind Pressure Humidity
    00:00 +13°C° 0 mm 2 mps 760 mmHg 95%
    01:00 +12°C° 0 mm 3 mps 760 mmHg 96%
    02:00 +12°C° 0 mm 3 mps 760 mmHg 96%
    03:00 +11°C° 0 mm 3 mps 760 mmHg 96%
    04:00 +11°C° 0 mm 3 mps 760 mmHg 96%
    05:00 +11°C° 0 mm 4 mps 761 mmHg 95%
    06:00 +11°C° 0 mm 4 mps 761 mmHg 94%
    07:00 +11°C° 0 mm 4 mps 761 mmHg 93%
    08:00 +10°C° 0 mm 5 mps 762 mmHg 87%
    09:00 +12°C° 0 mm 5 mps 762 mmHg 81%
    10:00 +12°C° 0 mm 5 mps 763 mmHg 74%
    11:00 +13°C° 0 mm 5 mps 763 mmHg 69%
    12:00 +13°C° 0 mm 5 mps 763 mmHg 65%
    13:00 +14°C° 0 mm 5 mps 763 mmHg 60%
    14:00 +13°C° 0 mm 5 mps 763 mmHg 61%
    15:00 +13°C° 0 mm 4 mps 763 mmHg 62%
    16:00 +13°C° 0 mm 4 mps 764 mmHg 63%
    17:00 +11°C° 0 mm 4 mps 764 mmHg 68%
    18:00 +10°C° 0 mm 4 mps 764 mmHg 72%
    19:00 +8°C° 0 mm 4 mps 764 mmHg 77%
    20:00 +9°C° 0 mm 3 mps 764 mmHg 79%
    21:00 +8°C° 0 mm 3 mps 765 mmHg 81%
    22:00 +8°C° 0 mm 3 mps 765 mmHg 83%
    23:00 +8°C° 0 mm 3 mps 765 mmHg 85%

    Tomorrow, 19 October, Friday

    Time Temperature Precipitation Wind Pressure Humidity
    00:00 +7°C° 0 mm 2 mps 765 mmHg 86%
    01:00 +7°C° 0 mm 2 mps 765 mmHg 87%
    02:00 +7°C° 0 mm 2 mps 765 mmHg 88%
    03:00 +7°C° 0 mm 2 mps 765 mmHg 88%
    04:00 +7°C° 0 mm 2 mps 765 mmHg 88%
    05:00 +7°C° 0 mm 2 mps 765 mmHg 89%
    06:00 +7°C° 0 mm 2 mps 765 mmHg 89%
    07:00 +7°C° 0 mm 2 mps 765 mmHg 89%
    08:00 +8°C° 0 mm 2 mps 765 mmHg 84%
    09:00 +9°C° 0 mm 2 mps 765 mmHg 78%
    10:00 +12°C° 0 mm 2 mps 766 mmHg 73%
    11:00 +11°C° 0 mm 3 mps 766 mmHg 70%
    12:00 +12°C° 0 mm 3 mps 766 mmHg 66%
    13:00 +12°C° 0 mm 3 mps 766 mmHg 63%
    14:00 +12°C° 0 mm 3 mps 766 mmHg 64%
    15:00 +11°C° 0 mm 3 mps 766 mmHg 65%
    16:00 +11°C° 0 mm 3 mps 765 mmHg 66%
    17:00 +10°C° 0 mm 3 mps 766 mmHg 70%
    18:00 +9°C° 0 mm 2 mps 766 mmHg 73%
    19:00 +8°C° 0 mm 2 mps 766 mmHg 77%
    20:00 +8°C° 0 mm 2 mps 766 mmHg 78%
    21:00 +7°C° 0 mm 2 mps 766 mmHg 80%
    22:00 +7°C° 0 mm 2 mps 767 mmHg 81%
    23:00 +7°C° 0 mm 2 mps 767 mmHg 82%

    Day after tomorrow, 20 October, Saturday

    Time Temperature Precipitation Wind Pressure Humidity
    00:00 +7°C° 0 mm 2 mps 767 mmHg 82%
    01:00 +7°C° 0 mm 3 mps 767 mmHg 83%
    02:00 +7°C° 0 mm 3 mps 767 mmHg 83%
    03:00 +7°C° 0 mm 3 mps 767 mmHg 83%
    04:00 +7°C° 0 mm 3 mps 767 mmHg 82%
    05:00 +7°C° 0 mm 3 mps 767 mmHg 83%
    06:00 +8°C° 0 mm 3 mps 767 mmHg 84%
    07:00 +8°C° 0 mm 3 mps 768 mmHg 85%
    08:00 +8°C° 0 mm 4 mps 768 mmHg 81%
    09:00 +10°C° 0 mm 4 mps 768 mmHg 77%
    10:00 +12°C° 0 mm 5 mps 768 mmHg 74%
    11:00 +12°C° 0 mm 5 mps 768 mmHg 73%
    12:00 +13°C° 0 mm 5 mps 769 mmHg 72%
    13:00 +14°C° 0 mm 5 mps 769 mmHg 72%
    14:00 +13°C° 0 mm 4 mps 769 mmHg 74%
    15:00 +13°C° 0 mm 4 mps 768 mmHg 76%
    16:00 +13°C° 0 mm 4 mps 768 mmHg 78%
    17:00 +12°C° 0 mm 4 mps 768 mmHg 83%
    18:00 +11°C° 0 mm 4 mps 768 mmHg 87%
    19:00 +10°C° 0 mm 3 mps 768 mmHg 92%
    20:00 +10°C° 0 mm 3 mps 769 mmHg 92%
    21:00 +10°C° 0 mm 3 mps 769 mmHg 92%
    22:00 +10°C° 0 mm 3 mps 769 mmHg 93%
    23:00 +10°C° 0 mm 4 mps 769 mmHg 93%

    21 October, Sunday

    Time Temperature Precipitation Wind Pressure Humidity
    00:00 +10°C° 0 mm 4 mps 768 mmHg 93%
    01:00 +10°C° 0 mm 4 mps 768 mmHg 93%
    02:00 +9°C° 0 mm 5 mps 768 mmHg 92%
    03:00 +9°C° 0 mm 5 mps 768 mmHg 91%
    04:00 +9°C° 0 mm 5 mps 767 mmHg 90%
    05:00 +9°C° 0 mm 5 mps 767 mmHg 89%
    06:00 +8°C° 0 mm 5 mps 767 mmHg 88%
    07:00 +8°C° 0 mm 5 mps 767 mmHg 87%
    08:00 +9°C° 0 mm 6 mps 767 mmHg 82%
    09:00 +10°C° 0 mm 6 mps 766 mmHg 77%
    10:00 +11°C° 0 mm 6 mps 766 mmHg 73%
    11:00 +13°C° 0 mm 6 mps 766 mmHg 72%
    12:00 +13°C° 0 mm 6 mps 766 mmHg 70%
    13:00 +14°C° 0 mm 6 mps 765 mmHg 69%
    14:00 +13°C° 0 mm 6 mps 765 mmHg 71%
    15:00 +13°C° 0 mm 6 mps 764 mmHg 72%
    16:00 +13°C° 0 mm 6 mps 764 mmHg 73%
    17:00 +13°C° 0 mm 6 mps 764 mmHg 74%
    18:00 +12°C° 0 mm 7 mps 763 mmHg 75%
    19:00 +11°C° 0 mm 7 mps 763 mmHg 76%
    20:00 +12°C° 0.2 mm 7 mps 763 mmHg 78%
    21:00 +12°C° 0.2 mm 7 mps 763 mmHg 81%
    22:00 +12°C° 0.2 mm 7 mps 763 mmHg 83%
    23:00 +12°C° 0.3 mm 7 mps 763 mmHg 84%

    22 October, Monday

    Time Temperature Precipitation Wind Pressure Humidity
    00:00 +11°C° 0.3 mm 7 mps 764 mmHg 85%
    01:00 +11°C° 0.3 mm 7 mps 764 mmHg 86%
    02:00 +10°C° 0 mm 6 mps 764 mmHg 87%
    03:00 +9°C° 0 mm 6 mps 765 mmHg 87%
    04:00 +8°C° 0 mm 6 mps 765 mmHg 87%
    05:00 +8°C° 0 mm 5 mps 766 mmHg 86%
    06:00 +8°C° 0 mm 5 mps 766 mmHg 85%
    07:00 +8°C° 0 mm 5 mps 766 mmHg 85%
    08:00 +8°C° 0 mm 6 mps 767 mmHg 78%
    09:00 +9°C° 0 mm 7 mps 767 mmHg 71%
    10:00 +10°C° 0 mm 7 mps 768 mmHg 65%
    11:00 +10°C° 0 mm 7 mps 768 mmHg 62%
    12:00 +10°C° 0 mm 7 mps 768 mmHg 59%
    13:00 +11°C° 0 mm 7 mps 768 mmHg 56%
    14:00 +10°C° 0 mm 7 mps 768 mmHg 58%
    15:00 +10°C° 0 mm 7 mps 767 mmHg 61%
    16:00 +10°C° 0 mm 6 mps 767 mmHg 64%
    17:00 +9°C° 0 mm 6 mps 767 mmHg 66%
    18:00 +9°C° 0 mm 6 mps 766 mmHg 69%
    19:00 +9°C° 0 mm 7 mps 766 mmHg 72%
    20:00 +9°C° 0.1 mm 7 mps 765 mmHg 73%
    21:00 +9°C° 0.1 mm 8 mps 764 mmHg 74%
    22:00 +9°C° 0.1 mm 8 mps 764 mmHg 75%
    23:00 +8°C° 0.4 mm 9 mps 762 mmHg 77%

    23 October, Tuesday

    Time Temperature Precipitation Wind Pressure Humidity
    00:00 +8°C° 0.4 mm 9 mps 761 mmHg 80%
    01:00 +8°C° 0.4 mm 10 mps 760 mmHg 83%
    02:00 +8°C° 1 mm 9 mps 759 mmHg 83%
    03:00 +8°C° 1 mm 9 mps 758 mmHg 83%
    04:00 +8°C° 1 mm 9 mps 757 mmHg 84%
    05:00 +7°C° 0.6 mm 8 mps 757 mmHg 81%
    06:00 +7°C° 0.6 mm 8 mps 757 mmHg 78%
    07:00 +6°C° 0.6 mm 8 mps 756 mmHg 75%
    08:00 +6°C° 0 mm 8 mps 757 mmHg 71%
    09:00 +6°C° 0 mm 8 mps 758 mmHg 67%
    10:00 +6°C° 0 mm 8 mps 758 mmHg 63%
    11:00 +7°C° 0 mm 8 mps 758 mmHg 60%
    12:00 +9°C° 0 mm 8 mps 759 mmHg 58%
    13:00 +9°C° 0 mm 7 mps 759 mmHg 55%
    14:00 +9°C° 0 mm 7 mps 759 mmHg 57%
    15:00 +8°C° 0 mm 7 mps 759 mmHg 59%
    16:00 +8°C° 0 mm 7 mps 759 mmHg 60%
    17:00 +6°C° 0 mm 7 mps 760 mmHg 63%
    18:00 +7°C° 0 mm 6 mps 760 mmHg 65%
    19:00 +5°C° 0 mm 6 mps 760 mmHg 68%
    20:00 +5°C° 0 mm 6 mps 760 mmHg 69%
    21:00 +6°C° 0 mm 5 mps 761 mmHg 71%
    22:00 +5°C° 0 mm 5 mps 761 mmHg 72%
    23:00 +5°C° 0 mm 5 mps 761 mmHg 74%
    Show more